Location: Camp at the Woods
(43.2055°N, 93.0905°W)
Time: 10:41:46
(UTC+00:00)

SAR-Lupe-2 - Pass Details

Date: 05 December 2023
Orbit: 481 x 482 km, 98.1° (Epoch: 05 September)

Event Time Altitude Azimuth Distance (km) Brightness Sun altitude
Rises 12:04:08 0° 15° (NNE) 2,555 7.2 -14.9°
Reaches altitude 10° 12:06:13 10° 19° (NNE) 1,670 6.3 -14.5°
Maximum altitude 12:09:47 67° 102° (ESE) 529 3.9 -13.9°
Drops below altitude 10° 12:13:19 10° 186° (S) 1,655 6.4 -13.3°
Sets 12:15:23 0° 189° (S) 2,529 7.3 -12.9°
